View from above orbital plane
|
View from above satellite
|
Ground track
|
The orbit data is extracted from the following two-line orbital elements,
1 16111U 85090B 13139.19301585 .00007733 00000-0 28912-3 0 1550
2 16111 097.4242 216.9852 0028628 354.3489 005.7423 15.27234751514924
| Epoch (UTC): | 19 May 2013 04:37:56 |
| Eccentricity: | 0.0028628 |
| inclination: | 97.4242° |
| perigee height: | 464 km |
| apogee height: | 504 km |
| right ascension of ascending node: | 216.9852° |
| argument of perigee: | 354.3489° |
| revolutions per day: | 15.27234751 |
| mean anomaly at epoch: | 5.7423° |
| orbit number at epoch: | 51492 |
The dashed part of the orbit path shows where the satellite is in the earth's shadow,
|
|